Weather History for St. James, MN

Change the Weather History Date:

Friday, January 25, 2013

  Actual Average Record
Temperature  
Mean Temperature 16 °F -  
Max Temperature 26 °F 24 °F 55 °F (1981)
Min Temperature 5 °F 6 °F -16 °F (1972)
Degree Days  
Heating Degree Days 50    
Moisture  
Dew Point 2 °F    
Average Humidity 54    
Maximum Humidity 69    
Minimum Humidity 33    
Precipitation  
Precipitation 0.00 in - - ()
Sea Level Pressure  
Sea Level Pressure 30.13 in    
Wind  
Wind Speed 13 mph (WNW)    
Max Wind Speed 33 mph    
Max Gust Speed 40 mph    
Visibility 10 miles    
Events Snow    
Averages and records for this station are not official NWS values.
T = Trace of Precipitation, MM = Missing Value Source: NWS Daily Summary

Daily Weather History Graph

Daily Weather History Graph

Search for Another Location

Airport:

Trip Planner

Search our weather history database for the weather conditions in past years. The results will help you decide how hot, cold, wet, or windy it might be!

Date:

Astronomy

Jan. 25, 2013 Rise Set
Actual Time 7:42 AM CST 5:19 PM CST
Civil Twilight 7:11 AM CST 5:50 PM CST
Nautical Twilight 6:36 AM CST 6:25 PM CST
Astronomical Twilight 6:02 AM CST 6:59 PM CST
Moon 4:17 PM CST (1/25) 6:22 AM CST (1/25)
Length of Visible Light 10h 39m
Length of Day
9h 37m
Waxing Gibbous, 98% of the Moon is Illuminated
Jan 25
Waxing Gibbous
Jan 26
Full
Feb 3
Last Quarter
Feb 10
New
Feb 17
First Quarter

Hourly Weather History & Observations

Time (CST) Temp. Windchill Dew Point Humidity Pressure Visibility Wind Dir Wind Speed Gust Speed Precip Events Conditions
12:15 AM 17.6 °F 5.0 °F 3.2 °F 53% 30.13 in 10.0 mi SSE 11.5 mph - N/A   Scattered Clouds
12:35 AM 17.6 °F 5.0 °F 3.2 °F 53% 30.12 in 10.0 mi South 11.5 mph 16.1 mph N/A   Overcast
12:55 AM 17.6 °F 7.3 °F 5.0 °F 58% 30.12 in 10.0 mi South 8.1 mph - N/A   Overcast
1:15 AM 17.6 °F 6.4 °F 3.2 °F 53% 30.10 in 10.0 mi SSE 9.2 mph - N/A   Overcast
1:35 AM 19.4 °F 7.9 °F 3.2 °F 49% 30.08 in 10.0 mi South 10.4 mph - N/A   Overcast
1:55 AM 19.4 °F 7.2 °F 3.2 °F 49% 30.09 in 10.0 mi South 11.5 mph - N/A   Overcast
2:15 AM 17.6 °F 5.0 °F 3.2 °F 53% 30.07 in 10.0 mi South 11.5 mph - N/A   Scattered Clouds
2:35 AM 17.6 °F 6.4 °F 3.2 °F 53% 30.07 in 10.0 mi South 9.2 mph - N/A   Clear
2:55 AM 17.6 °F - 3.2 °F 53% 30.06 in 10.0 mi Calm Calm - N/A   Clear
3:15 AM 17.6 °F - 3.2 °F 53% 30.06 in 10.0 mi Calm Calm - N/A   Clear
3:35 AM 15.8 °F - 3.2 °F 58% 30.06 in 10.0 mi Calm Calm - N/A   Clear
3:55 AM 15.8 °F - 3.2 °F 58% 30.04 in 10.0 mi Calm Calm - N/A   Clear
4:15 AM 15.8 °F - 3.2 °F 58% 30.03 in 10.0 mi Calm Calm - N/A   Clear
4:35 AM 15.8 °F - 3.2 °F 58% 30.02 in 10.0 mi Calm Calm - N/A   Clear
4:55 AM 15.8 °F - 3.2 °F 58% 30.01 in 10.0 mi Calm Calm - N/A   Clear
5:15 AM 15.8 °F 1.4 °F 3.2 °F 58% 30.01 in 10.0 mi SW 13.8 mph 18.4 mph N/A   Clear
5:35 AM 15.8 °F 3.4 °F 5.0 °F 62% 30.00 in 10.0 mi SSW 10.4 mph - N/A   Scattered Clouds
5:55 AM 17.6 °F 3.7 °F 5.0 °F 58% 29.99 in 10.0 mi SW 13.8 mph - N/A   Overcast
6:15 AM 17.6 °F 3.2 °F 6.8 °F 63% 29.99 in 10.0 mi SW 15.0 mph 19.6 mph N/A   Overcast
6:35 AM 19.4 °F 7.9 °F 6.8 °F 58% 29.99 in 10.0 mi WSW 10.4 mph - N/A   Overcast
6:55 AM 19.4 °F 7.2 °F 6.8 °F 58% 29.99 in 10.0 mi WSW 11.5 mph - N/A   Overcast
7:35 AM 21.2 °F 9.5 °F 10.4 °F 63% 30.00 in 10.0 mi WSW 11.5 mph - N/A   Overcast
7:55 AM 21.2 °F 8.3 °F 10.4 °F 63% 30.00 in 10.0 mi West 13.8 mph - N/A   Overcast
8:15 AM 21.2 °F 9.5 °F 10.4 °F 63% 30.01 in 10.0 mi West 11.5 mph - N/A   Overcast
8:35 AM 23.0 °F 11.7 °F 12.2 °F 63% 30.01 in 10.0 mi West 11.5 mph - N/A   Overcast
8:55 AM 24.8 °F 11.5 °F 14.0 °F 64% 30.02 in 10.0 mi West 17.3 mph 20.7 mph N/A   Overcast
9:15 AM 24.8 °F 10.3 °F 15.8 °F 69% 30.02 in 10.0 mi WNW 20.7 mph 26.5 mph N/A   Overcast
9:35 AM 26.6 °F 12.0 °F 14.0 °F 59% 30.03 in 10.0 mi WNW 23.0 mph 31.1 mph N/A   Overcast
9:55 AM 26.6 °F 11.1 °F 12.2 °F 55% 30.03 in 10.0 mi WNW 26.5 mph 32.2 mph N/A   Overcast
10:15 AM 24.8 °F 9.3 °F 12.2 °F 59% 30.05 in 7.0 mi WNW 24.2 mph 29.9 mph N/A Snow Light Snow
10:34 AM 24.8 °F 9.6 °F 10.4 °F 54% 30.06 in 10.0 mi NW 23.0 mph 31.1 mph N/A Snow Light Snow
10:55 AM 23.0 °F 6.0 °F 8.6 °F 54% 30.07 in 10.0 mi WNW 27.6 mph 38.0 mph N/A   Scattered Clouds
11:15 AM 23.0 °F 5.7 °F 5.0 °F 46% 30.08 in 10.0 mi NW 28.8 mph 35.7 mph N/A   Clear
11:34 AM 21.2 °F 2.2 °F 1.4 °F 42% 30.09 in 10.0 mi WNW 33.4 mph 40.3 mph N/A   Clear
11:55 AM 21.2 °F 3.3 °F -2.2 °F 36% 30.10 in 7.0 mi NW 28.8 mph 36.8 mph N/A   Clear
12:15 PM 21.2 °F 4.9 °F -0.4 °F 39% 30.11 in 10.0 mi NW 23.0 mph 32.2 mph N/A   Clear
12:35 PM 19.4 °F 1.8 °F -2.2 °F 39% 30.11 in 10.0 mi NW 25.3 mph 31.1 mph N/A   Clear
12:55 PM 19.4 °F 1.4 °F -2.2 °F 39% 30.12 in 10.0 mi WNW 26.5 mph 35.7 mph N/A   Clear
1:15 PM 19.4 °F 1.4 °F -5.8 °F 33% 30.12 in 10.0 mi WNW 26.5 mph 32.2 mph N/A   Clear
1:35 PM 17.6 °F -1.0 °F -4.0 °F 38% 30.12 in 10.0 mi WNW 26.5 mph 32.2 mph N/A   Clear
1:55 PM 17.6 °F -0.6 °F -4.0 °F 38% 30.12 in 10.0 mi WNW 25.3 mph 33.4 mph N/A   Clear
2:15 PM 17.6 °F -1.3 °F -4.0 °F 38% 30.13 in 10.0 mi WNW 27.6 mph 34.5 mph N/A   Clear
2:34 PM 17.6 °F 0.9 °F -2.2 °F 42% 30.14 in 10.0 mi WNW 20.7 mph 31.1 mph N/A   Clear
2:55 PM 17.6 °F 0.9 °F -2.2 °F 42% 30.14 in 10.0 mi WNW 20.7 mph 29.9 mph N/A   Clear
3:15 PM 15.8 °F -1.1 °F -2.2 °F 45% 30.15 in 10.0 mi WNW 19.6 mph 31.1 mph N/A   Clear
3:35 PM 15.8 °F -1.1 °F -2.2 °F 45% 30.15 in 10.0 mi WNW 19.6 mph 29.9 mph N/A   Clear
3:54 PM 15.8 °F -1.1 °F -2.2 °F 45% 30.16 in 10.0 mi WNW 19.6 mph 26.5 mph N/A   Clear
4:15 PM 14.0 °F -3.4 °F -2.2 °F 49% 30.17 in 10.0 mi WNW 19.6 mph 26.5 mph N/A   Clear
4:35 PM 14.0 °F -3.0 °F -2.2 °F 49% 30.18 in 10.0 mi WNW 18.4 mph 24.2 mph N/A   Clear
4:55 PM 12.2 °F -4.8 °F -2.2 °F 53% 30.19 in 10.0 mi NW 17.3 mph - N/A   Clear
5:15 PM 12.2 °F -5.8 °F -2.2 °F 53% 30.19 in 10.0 mi WNW 19.6 mph - N/A   Clear
5:35 PM 12.2 °F -3.7 °F -2.2 °F 53% 30.21 in 10.0 mi WNW 15.0 mph 23.0 mph N/A   Clear
5:55 PM 10.4 °F -5.4 °F -2.2 °F 57% 30.21 in 10.0 mi NW 13.8 mph - N/A   Clear
6:15 PM 10.4 °F -4.1 °F -2.2 °F 57% 30.22 in 10.0 mi WNW 11.5 mph 19.6 mph N/A   Clear
6:35 PM 10.4 °F -6.6 °F -2.2 °F 57% 30.23 in 10.0 mi WNW 16.1 mph - N/A   Clear
6:55 PM 10.4 °F -4.8 °F -2.2 °F 57% 30.24 in 10.0 mi WNW 12.7 mph - N/A   Clear
7:15 PM 10.4 °F -4.8 °F -2.2 °F 57% 30.25 in 10.0 mi WNW 12.7 mph - N/A   Clear
7:35 PM 8.6 °F -8.9 °F -2.2 °F 62% 30.25 in 10.0 mi NW 16.1 mph - N/A   Clear
7:55 PM 8.6 °F -6.3 °F -2.2 °F 62% 30.25 in 10.0 mi NW 11.5 mph - N/A   Clear
8:14 PM 8.6 °F -7.7 °F -2.2 °F 62% 30.25 in 10.0 mi NW 13.8 mph - N/A   Clear
8:35 PM 8.6 °F -7.7 °F -2.2 °F 62% 30.26 in 10.0 mi NW 13.8 mph - N/A   Clear
8:55 PM 8.6 °F -7.0 °F -2.2 °F 62% 30.27 in 10.0 mi NW 12.7 mph - N/A   Clear
9:14 PM 8.6 °F -8.3 °F -4.0 °F 57% 30.27 in 10.0 mi NW 15.0 mph - N/A   Clear
9:35 PM 6.8 °F -8.6 °F -4.0 °F 61% 30.28 in 10.0 mi NW 11.5 mph - N/A   Clear
9:55 PM 6.8 °F -6.9 °F -4.0 °F 61% 30.28 in 10.0 mi NW 9.2 mph - N/A   Clear
10:14 PM 6.8 °F -7.8 °F -4.0 °F 61% 30.29 in 10.0 mi NW 10.4 mph - N/A   Clear
10:35 PM 6.8 °F - -4.0 °F 61% 30.29 in 10.0 mi Calm Calm - N/A   Clear
10:55 PM 6.8 °F - -4.0 °F 61% 30.30 in 10.0 mi Calm Calm - N/A   Clear
11:14 PM 5.0 °F - -4.0 °F 66% 30.30 in 10.0 mi Calm Calm - N/A   Clear
11:35 PM 5.0 °F - -4.0 °F 66% 30.30 in 10.0 mi Calm Calm - N/A   Clear
11:55 PM 5.0 °F - -4.0 °F 66% 30.30 in 10.0 mi Calm Calm - N/A   Clear